Volver al catálogo

SITRO-AIS-22

ActivoComunicacionesSSO
NORAD 61740·PAYLOAD·🇷🇺 Russia
Este nombre de satélite aún no ha sido confirmado por fuentes oficiales.

Lanzado Nov 4, 2024 desde Vostochny Cosmodrome

Loading…

Próximos Pases (próximas 24 horas)

TLE

ActualizadoSource: Space-Track

Época: Sep 14, 2026, 14:13 UTC

1 61740U 24199F   26257.59270518  .00001558  00000-0  14248-3 0  9993
2 61740  97.3216  89.8480 0013637 117.3827 242.8785 14.96252129145281

Sigue SITRO-AIS-22 en tiempo real con AllMySat

Download on the App Store